Weather History for Dallas Addison, TX

Change the Weather History Date:

Saturday, March 29, 2014

  Actual Average Record
Temperature  
Mean Temperature 58 °F -  
Max Temperature 71 °F 69 °F 86 °F (2002)
Min Temperature 44 °F 51 °F 33 °F (2009)
Degree Days  
Heating Degree Days 8    
Growing Degree Days 8 (Base 50)    
Moisture  
Dew Point 36 °F    
Average Humidity 51    
Maximum Humidity 76    
Minimum Humidity 20    
Precipitation  
Precipitation 0.00 in - - ()
Sea Level Pressure  
Sea Level Pressure 30.19 in    
Wind  
Wind Speed 10 mph (North)    
Max Wind Speed 16 mph    
Max Gust Speed 22 mph    
Visibility 11 miles    
Events      
Averages and records for this station are not official NWS values.
T = Trace of Precipitation, MM = Missing Value Source: NWS Daily Summary

Daily Weather History Graph

Daily Weather History Graph

Search for Another Location

Airport:

Trip Planner

Search our weather history database for the weather conditions in past years. The results will help you decide how hot, cold, wet, or windy it might be!

Date:

Astronomy

Mar. 29, 2014 Rise Set
Actual Time 7:19 AM CDT 7:45 PM CDT
Civil Twilight 6:54 AM CDT 8:10 PM CDT
Nautical Twilight 6:25 AM CDT 8:39 PM CDT
Astronomical Twilight 5:55 AM CDT 9:08 PM CDT
Moon 6:25 AM CDT 6:53 PM CDT
Length of Visible Light 13h 15m
Length of Day
12h 26m
Waning Crescent, 2% of the Moon is Illuminated
Mar 29
Waning Crescent
Mar 30
New
Apr 7
First Quarter
Apr 15
Full
Apr 22
Last Quarter

Hourly Weather History & Observations

Time (CDT) Temp. Windchill Dew Point Humidity Pressure Visibility Wind Dir Wind Speed Gust Speed Precip Events Conditions
12:15 AM 53.1 °F - 40.1 °F 61% 30.10 in 10.0 mi North 16.1 mph 21.9 mph N/A   Clear
12:35 AM 52.7 °F - 40.1 °F 62% 30.10 in 10.0 mi North 12.7 mph 19.6 mph N/A   Clear
1:15 AM 52.3 °F - 40.1 °F 63% 30.10 in 10.0 mi NNE 10.4 mph 16.1 mph N/A   Clear
1:35 AM 52.3 °F - 40.1 °F 63% 30.11 in 10.0 mi North 8.1 mph - N/A   Clear
1:55 AM 51.8 °F - 40.1 °F 64% 30.11 in 10.0 mi North 9.2 mph - N/A   Clear
2:15 AM 50.7 °F - 40.1 °F 67% 30.12 in 10.0 mi North 9.2 mph - N/A   Clear
2:35 AM 50.5 °F - 40.1 °F 67% 30.12 in 10.0 mi North 10.4 mph - N/A   Clear
2:55 AM 50.2 °F - 39.7 °F 67% 30.12 in 10.0 mi North 10.4 mph - N/A   Clear
3:15 AM 49.5 °F - 39.6 °F 69% 30.14 in 10.0 mi NNW 6.9 mph - N/A   Clear
3:35 AM 48.2 °F - 39.4 °F 72% 30.15 in 10.0 mi NNW 5.8 mph - N/A   Clear
3:55 AM 47.8 °F - 39.2 °F 72% 30.16 in 10.0 mi WNW 3.5 mph - N/A   Clear
4:15 AM 48.4 °F - 39.4 °F 71% 30.17 in 10.0 mi WNW 4.6 mph - N/A   Clear
4:35 AM 48.2 °F - 39.2 °F 71% 30.17 in 10.0 mi NNW 8.1 mph - N/A   Clear
4:55 AM 47.3 °F - 39.2 °F 73% 30.18 in 10.0 mi NNW 10.4 mph - N/A   Clear
5:15 AM 47.3 °F - 39.2 °F 73% 30.18 in 10.0 mi North 8.1 mph - N/A   Clear
5:35 AM 47.3 °F - 39.2 °F 73% 30.19 in 10.0 mi North 8.1 mph - N/A   Clear
5:47 AM 46.4 °F 41.5 °F 39.2 °F 76% 30.18 in 13.0 mi NNW 10.4 mph - N/A   Clear
7:47 AM 44.6 °F 41.4 °F 37.4 °F 76% 30.22 in 13.0 mi NNW 5.8 mph - N/A   Clear
8:47 AM 48.2 °F - 39.2 °F 71% 30.25 in 13.0 mi NNW 10.4 mph - N/A   Clear
9:47 AM 51.8 °F - 39.2 °F 62% 30.27 in 13.0 mi North 12.7 mph - N/A   Clear
10:51 AM 57.2 °F - 39.2 °F 51% 30.30 in 13.0 mi NNW 10.4 mph - N/A   Clear
1:47 PM 69.8 °F - 33.8 °F 27% 30.27 in 15.0 mi North 13.8 mph - N/A   Clear
3:47 PM 71.6 °F - 28.4 °F 20% 30.22 in 15.0 mi NNE 9.2 mph 16.1 mph N/A   Clear
4:47 PM 71.6 °F - 28.4 °F 20% 30.20 in 13.0 mi NW 4.6 mph - N/A   Clear
5:47 PM 71.6 °F - 28.4 °F 20% 30.19 in 15.0 mi North 8.1 mph - N/A   Clear
6:47 PM 69.8 °F - 28.4 °F 21% 30.19 in 15.0 mi North 6.9 mph - N/A   Clear
7:47 PM 66.2 °F - 28.4 °F 24% 30.20 in 13.0 mi NNW 4.6 mph - N/A   Partly Cloudy
8:47 PM 66.2 °F - 26.6 °F 23% 30.20 in 13.0 mi East 4.6 mph - N/A   Partly Cloudy
9:47 PM 64.4 °F - 26.6 °F 24% 30.21 in 13.0 mi ESE 5.8 mph - N/A   Partly Cloudy
10:15 PM 63.9 °F - 29.1 °F 27% 30.23 in 10.0 mi ESE 4.6 mph - N/A   Clear
10:35 PM 62.6 °F - 30.4 °F 30% 30.23 in 10.0 mi ESE 5.8 mph - N/A   Clear
10:55 PM 62.4 °F - 31.1 °F 31% 30.23 in 10.0 mi ESE 6.9 mph - N/A   Clear
11:15 PM 62.1 °F - 31.5 °F 32% 30.23 in 10.0 mi ESE 5.8 mph - N/A   Clear
11:35 PM 61.7 °F - 31.6 °F 32% 30.23 in 10.0 mi ESE 6.9 mph - N/A   Clear
11:55 PM 61.0 °F - 31.6 °F 33% 30.23 in 10.0 mi ESE 6.9 mph - N/A   Clear